TimeEDT,TemperatureF,Dew PointF,Humidity,Sea Level PressureIn,VisibilityMPH,Wind Direction,Wind SpeedMPH,Gust SpeedMPH,PrecipitationIn,Events,Conditions,WindDirDegrees,DateUTC
2:53 AM,42.1,39.9,92,30.10,10.0,Calm,Calm,-,N/A,,Clear,0,2012-10-23 06:53:00
3:53 AM,42.1,39.9,92,30.09,10.0,Calm,Calm,-,N/A,,Clear,0,2012-10-23 07:53:00
4:53 AM,43.0,39.9,89,30.09,10.0,Calm,Calm,-,N/A,,Clear,0,2012-10-23 08:53:00
5:53 AM,42.1,39.9,92,30.11,10.0,Calm,Calm,-,N/A,,Clear,0,2012-10-23 09:53:00
6:53 AM,41.0,39.0,93,30.12,10.0,Calm,Calm,-,N/A,,Clear,0,2012-10-23 10:53:00
8:53 AM,48.0,44.1,86,30.14,10.0,Calm,Calm,-,N/A,,Mostly Cloudy,0,2012-10-23 12:53:00
9:53 AM,51.1,45.0,80,30.14,9.0,Calm,Calm,-,0.00,Rain,Light Rain,0,2012-10-23 13:53:00
10:53 AM,52.0,48.0,86,30.13,6.0,Calm,Calm,-,0.03,Rain,Light Rain,0,2012-10-23 14:53:00
11:53 AM,54.0,48.9,83,30.14,10.0,Calm,Calm,-,0.00,,Overcast,0,2012-10-23 15:53:00
12:53 PM,54.0,50.0,86,30.11,10.0,Calm,Calm,-,0.01,,Overcast,0,2012-10-23 16:53:00
1:53 PM,55.0,51.1,86,30.11,10.0,Calm,Calm,-,0.00,Rain,Light Rain,0,2012-10-23 17:53:00
2:18 PM,55.4,51.8,88,30.09,9.0,NE,3.5,-,N/A,,Mostly Cloudy,50,2012-10-23 18:18:00
2:53 PM,57.0,50.0,77,30.09,10.0,NE,4.6,-,N/A,,Mostly Cloudy,50,2012-10-23 18:53:00
4:53 PM,55.9,51.1,84,30.09,10.0,Calm,Calm,-,N/A,,Overcast,0,2012-10-23 20:53:00
5:53 PM,55.9,51.1,84,30.09,10.0,ENE,4.6,-,N/A,,Overcast,60,2012-10-23 21:53:00
6:53 PM,54.0,51.1,90,30.08,7.0,Calm,Calm,-,0.02,Rain,Light Rain,0,2012-10-23 22:53:00
7:53 PM,53.1,52.0,96,30.10,4.0,Calm,Calm,-,0.03,Rain,Light Rain,0,2012-10-23 23:53:00
8:46 PM,53.6,51.8,94,30.10,2.5,Calm,Calm,-,0.02,Rain,Light Rain,0,2012-10-24 00:46:00
8:53 PM,53.1,52.0,96,30.10,3.0,Calm,Calm,-,0.02,Rain,Light Rain,0,2012-10-24 00:53:00
9:53 PM,53.1,52.0,96,30.11,4.0,Calm,Calm,-,0.01,,Overcast,0,2012-10-24 01:53:00
10:50 PM,53.6,51.8,94,30.10,2.5,Calm,Calm,-,0.00,Rain,Light Rain,0,2012-10-24 02:50:00
10:53 PM,53.1,52.0,96,30.10,2.5,Calm,Calm,-,0.00,,Overcast,0,2012-10-24 02:53:00
11:01 PM,53.6,51.8,94,30.10,3.0,Calm,Calm,-,N/A,,Overcast,0,2012-10-24 03:01:00
11:42 PM,53.6,51.8,94,30.10,2.5,Calm,Calm,-,0.01,Rain,Light Rain,0,2012-10-24 03:42:00
11:50 PM,53.6,51.8,94,30.10,3.0,Calm,Calm,-,0.01,Rain,Light Rain,0,2012-10-24 03:50:00
11:53 PM,53.1,52.0,96,30.10,3.0,Calm,Calm,-,0.01,Rain,Light Rain,0,2012-10-24 03:53:00